Weather History for Amsterdam, Netherlands

Change the Weather History Date:

Monday, December 10, 2012

  Actual Average Record
Temperature  
Mean Temperature 36 °F -  
Max Temperature 40 °F 42 °F 55 °F (1997)
Min Temperature 32 °F 34 °F 17 °F (2002)
Degree Days  
Heating Degree Days 28    
Moisture  
Dew Point 32 °F    
Average Humidity 76    
Maximum Humidity 87    
Minimum Humidity 55    
Precipitation  
Precipitation 0.02 in - - ()
Sea Level Pressure  
Sea Level Pressure 29.93 in    
Wind  
Wind Speed 15 mph ()    
Max Wind Speed 24 mph    
Max Gust Speed 37 mph    
Visibility 7.2 miles    
Events Rain    
Averages and records for this station are not official NWS values.
T = Trace of Precipitation, MM = Missing Value Source: Averaged Metar Reports

Daily Weather History Graph

Daily Weather History Graph

Search for Another Location

Airport:

Trip Planner

Search our weather history database for the weather conditions in past years. The results will help you decide how hot, cold, wet, or windy it might be!

Date:

Astronomy

Dec. 10, 2012 Rise Set
Actual Time 8:39 AM CET 4:27 PM CET
Civil Twilight 7:58 AM CET 5:08 PM CET
Nautical Twilight 7:14 AM CET 5:52 PM CET
Astronomical Twilight 6:33 AM CET 6:33 PM CET
Moon 4:46 AM CET (12/10) 2:20 PM CET (12/10)
Length of Visible Light 9h 09m
Length of Day
7h 48m
Waning Crescent, 12% of the Moon is Illuminated
Dec 10
Waning Crescent
Dec 13
New
Dec 20
First Quarter
Dec 28
Full
Jan 5
Last Quarter

Hourly Weather History & Observations

Time (CET) Temp. Windchill Dew Point Humidity Pressure Visibility Wind Dir Wind Speed Gust Speed Precip Events Conditions
12:25 AM 42.8 °F 33.8 °F 37.4 °F 81% 29.68 in 6.2 mi NW 21.9 mph - N/A Rain Light Rain Showers
12:55 AM 42.8 °F 34.5 °F 37.4 °F 81% 29.68 in 6.2 mi NW 18.4 mph - N/A   Partly Cloudy
1:00 AM 42 °F - 37 °F 75% 29.71 in 11 mi NW 17.9 mph - - Rain Rain
1:25 AM 42.8 °F 34.5 °F 37.4 °F 81% 29.68 in 6.2 mi NW 18.4 mph - N/A   Partly Cloudy
1:55 AM 42.8 °F 34.0 °F 33.8 °F 70% 29.71 in 6.2 mi NW 20.7 mph - N/A   Partly Cloudy
2:25 AM 42.8 °F 34.8 °F 35.6 °F 76% 29.71 in 6.2 mi NW 17.3 mph - N/A   Partly Cloudy
2:55 AM 42.8 °F 34.3 °F 33.8 °F 70% 29.71 in 6.2 mi NNW 19.6 mph - N/A   Partly Cloudy
3:25 AM 41.0 °F 33.5 °F 35.6 °F 81% 29.71 in 6.2 mi NW 13.8 mph 25.3 mph N/A   Partly Cloudy
3:55 AM 41.0 °F 32.8 °F 33.8 °F 76% 29.74 in 6.2 mi NW 16.1 mph - N/A Rain Light Rain Showers
4:00 AM 42 °F - 34 °F 66% 29.75 in 9 mi NW 17.9 mph - - Rain Light Drizzle
4:25 AM 41.0 °F 32.5 °F 32.0 °F 70% 29.74 in 6.2 mi NNW 17.3 mph - N/A   Mostly Cloudy
4:55 AM 39.2 °F 28.5 °F 32.0 °F 75% 29.74 in 6.2 mi North 24.2 mph 36.8 mph N/A   Scattered Clouds
5:25 AM 39.2 °F 29.6 °F 33.8 °F 81% 29.77 in 6.2 mi NNW 19.6 mph 32.2 mph N/A   Partly Cloudy
5:55 AM 39.2 °F 29.6 °F 33.8 °F 81% 29.77 in 6.2 mi NNW 19.6 mph - N/A Rain Light Rain Showers
6:25 AM 39.2 °F 30.2 °F 32.0 °F 75% 29.77 in 6.2 mi NNW 17.3 mph - N/A Rain Light Rain Showers
6:55 AM 39.2 °F 30.5 °F 33.8 °F 81% 29.77 in 6.2 mi NNW 16.1 mph - N/A Rain Light Rain Showers
7:00 AM 39 °F - 33 °F 73% 29.80 in 16 mi NNW 13.4 mph - -   Partly Cloudy
7:25 AM 39.2 °F 29.6 °F 33.8 °F 81% 29.80 in 6.2 mi NNW 19.6 mph - N/A Rain Light Rain Showers
7:55 AM 39.2 °F 29.3 °F 32.0 °F 75% 29.80 in 6.2 mi NNW 20.7 mph - N/A Rain Light Rain Showers
8:25 AM 39.2 °F 30.5 °F 33.8 °F 81% 29.80 in 5.6 mi NNW 16.1 mph - N/A Rain Light Rain Showers
8:55 AM 39.2 °F 30.8 °F 35.6 °F 87% 29.80 in 5.0 mi NNW 15.0 mph 26.5 mph N/A Rain Light Rain Showers
9:25 AM 39.2 °F 30.2 °F 35.6 °F 87% 29.83 in 6.2 mi North 17.3 mph - N/A   Scattered Clouds
9:55 AM 39.2 °F 29.6 °F 35.6 °F 87% 29.86 in 6.2 mi North 19.6 mph 32.2 mph N/A Rain Light Rain Showers
10:00 AM 39 °F - 36 °F 84% 29.88 in 22 mi North 17.9 mph - - Rain Rain
10:25 AM 39.2 °F 30.5 °F 35.6 °F 87% 29.89 in 6.2 mi North 16.1 mph - N/A Rain Light Rain Showers
10:55 AM 39.2 °F 31.6 °F 35.6 °F 87% 29.89 in 6.2 mi North 12.7 mph - N/A   Scattered Clouds
11:25 AM 39.2 °F 30.8 °F 35.6 °F 87% 29.92 in 4.3 mi North 15.0 mph - N/A Rain Light Rain Showers
11:55 AM 39.2 °F 29.8 °F 35.6 °F 87% 29.95 in 6.2 mi North 18.4 mph - N/A   Mostly Cloudy
12:25 PM 39.2 °F 29.8 °F 35.6 °F 87% 29.95 in 6.2 mi North 18.4 mph 31.1 mph N/A   Mostly Cloudy
12:55 PM 39.2 °F 29.8 °F 33.8 °F 81% 29.98 in 6.2 mi NNE 18.4 mph - N/A   Partly Cloudy
1:00 PM 39 °F - 34 °F 76% 29.98 in 16 mi NNE 15.7 mph - -   Partly Cloudy
1:25 PM 39.2 °F 30.2 °F 33.8 °F 81% 29.98 in 6.2 mi NNE 17.3 mph - N/A   Partly Cloudy
1:55 PM 39.2 °F 32.0 °F 32.0 °F 75% 30.01 in 6.2 mi NNE 11.5 mph - N/A   Scattered Clouds
2:25 PM 37.4 °F 29.8 °F 33.8 °F 87% 30.01 in 6.2 mi North 11.5 mph - N/A Rain Light Rain Showers
2:55 PM 37.4 °F 29.8 °F 32.0 °F 81% 30.04 in 6.2 mi NNE 11.5 mph - N/A   Mostly Cloudy
3:25 PM 37.4 °F 29.3 °F 32.0 °F 81% 30.04 in 6.2 mi North 12.7 mph - N/A   Mostly Cloudy
3:55 PM 37.4 °F 29.8 °F 32.0 °F 81% 30.04 in 6.2 mi North 11.5 mph - N/A   Partly Cloudy
4:00 PM 38 °F - 31 °F 68% 30.06 in 17 mi North 11.2 mph - -   Partly Cloudy
4:25 PM 37.4 °F 28.9 °F 32.0 °F 81% 30.06 in 6.2 mi North 13.8 mph - N/A Rain Light Rain
4:55 PM 37.4 °F 30.3 °F 30.2 °F 75% 30.06 in 6.2 mi North 10.4 mph - N/A   Partly Cloudy
5:25 PM 37.4 °F 30.3 °F 30.2 °F 75% 30.09 in - North 10.4 mph - N/A   Clear
5:55 PM 37.4 °F 30.3 °F 30.2 °F 75% 30.09 in - North 10.4 mph - N/A   Clear
6:25 PM 37.4 °F 30.8 °F 28.4 °F 70% 30.09 in 6.2 mi North 9.2 mph - N/A   Partly Cloudy
6:55 PM 37.4 °F 30.3 °F 28.4 °F 70% 30.12 in 6.2 mi North 10.4 mph - N/A   Partly Cloudy
7:00 PM 37 °F - 28 °F 58% 30.14 in 19 mi North 11.2 mph - -   Partly Cloudy
7:25 PM 37.4 °F 30.3 °F 28.4 °F 70% 30.12 in 6.2 mi North 10.4 mph - N/A   Partly Cloudy
7:55 PM 37.4 °F 29.3 °F 26.6 °F 65% 30.12 in 6.2 mi North 12.7 mph - N/A   Partly Cloudy
8:25 PM 35.6 °F 28.6 °F 26.6 °F 70% 30.12 in 6.2 mi North 9.2 mph - N/A   Partly Cloudy
8:55 PM 35.6 °F 28.0 °F 24.8 °F 65% 30.15 in - North 10.4 mph - N/A   Clear
9:25 PM 35.6 °F 27.5 °F 24.8 °F 65% 30.15 in - NNE 11.5 mph - N/A   Clear
9:55 PM 35.6 °F 28.6 °F 24.8 °F 65% 30.15 in - North 9.2 mph - N/A   Clear
10:00 PM 35 °F - 25 °F 55% 30.18 in 22 mi North 8.9 mph - -   Partly Cloudy
10:25 PM 35.6 °F 28.0 °F 24.8 °F 65% 30.18 in - North 10.4 mph - N/A   Clear
10:55 PM 33.8 °F 26.4 °F 24.8 °F 70% 30.18 in - North 9.2 mph - N/A   Clear
11:25 PM 33.8 °F 26.4 °F 24.8 °F 70% 30.18 in 6.2 mi NNE 9.2 mph - N/A   Partly Cloudy
11:55 PM 32.0 °F 26.4 °F 24.8 °F 75% 30.18 in 6.2 mi North 5.8 mph - N/A   Partly Cloudy